Warning: Javascript must be enabled to use all the features on this page!


Page Loading - Please Wait...

* We've detected you're using a mobile device. Find our Next Generation Station Page here.
Click to hideNews Bulletins

Streamflow Measurements for the Nation


USGS 295323085151700 IWW WEST OF GULF CO CANAL NEAR PORT ST JOE, FL


Gulf County, Florida
Hydrologic Unit Code 03140101
Latitude  29°53'23.0", Longitude  85°15'17.0" NAD83
Output formats
HTML table with channel data
HTML table without channel data
Tab-separated data with channel data
Tab-separated data without channel data
Graph of data
Reselect output format
Meas.
Number
  Date       Time Time
Datum
Measurement
Used?
  Who Measuring
Agency
Stream
flow
(ft3/s)
Gage
Height
(ft)
GH
Change
(ft)
Meas.
Duration
(hr)
Meas.
Rated
  Control Flow
Adjust.
Code
 
982022-09-15 15:54:45EDTYesNKY/TAKUSGS20700.80 0.10FairDebrisLightNONE
972022-09-15 15:22EDTYesNKY/TAKUSGS21700.81 0.10PoorDebrisLightNONE
962022-09-15 14:54:58EDTYesNKY/TAKUSGS22700.83 0.10FairDebrisLightNONE
952022-09-15 14:22:20EDTYesNKY/TAKUSGS25000.90 0.20GoodDebrisLightNONE
942022-08-25 14:15:51EDTYesNKY/TAKUSGS-33901.39 0.10GoodDebrisLightNONE
932022-08-25 13:57:12EDTYesNKY/TAKUSGS-32401.51 0.10GoodDebrisLightNONE
922022-08-25 13:41:33EDTYesNKY/TAKUSGS-31201.60 0.10GoodDebrisLightNONE
912022-08-25 13:24:02EDTYesNKY/TAKUSGS-29801.69 0.10GoodDebrisLightNONE
902022-08-25 13:00:27EDTYesNKY/TAKUSGS-27701.80 0.20GoodDebrisLightNONE
892022-07-14 13:50:45EDTYesNKY/TAKUSGS-41701.48 GoodDebrisLightNONE
882022-07-14 13:27:01EDTYesNKY/TAKUSGS-38701.48 PoorDebrisLightNONE
872022-07-14 13:19:19EDTYesNKY/TAKUSGS-39001.49 PoorDebrisLightNONE
862022-07-14 13:02:02EDTYesNKY/TAKUSGS-34301.54 PoorDebrisLightNONE
852022-07-14 12:55:03EDTYesNKY/TAKUSGS-31501.58 FairDebrisLightNONE
842022-06-15 13:06:26EDTYesTAK/NKYUSGS-29301.71 0.10FairDebrisLightNONE
832022-06-15 12:33:13EDTYesTAK/NKYUSGS-21401.73 0.12PoorDebrisLightNONE
822022-06-15 12:09:25EDTYesTAK/NKYUSGS-19901.69 0.30GoodDebrisLightNONE
812022-06-15 11:53:17EDTYesTAK/NKYUSGS-17401.66 0.25FairDebrisLightNONE
802022-06-15 11:22:51EDTYesTAK/NKYUSGS-11201.60 0.25PoorDebrisLightNONE
792022-06-15 10:50:31EDTYesTAK/NKYUSGS-6581.53 0.25PoorDebrisLightNONE
782022-06-15 10:24:55EDTYesTAK/NKYUSGS-4751.50 0.30PoorDebrisLightNONE
772022-05-18 18:12:10EDTYesNKY/TAKUSGS-33401.14 FairDebrisLightNONE
762022-05-18 17:48:57EDTYesNKY/TAKUSGS-37601.16 FairDebrisLightNONE
752022-05-18 17:24:29EDTYesNKY/TAKUSGS-40301.23 0.21FairDebrisLightNONE
742022-04-14 10:13:18EDTYesTAK/NKYUSGS42401.39 FairDebrisModerateNONE
732022-04-14 09:44:53EDTYesTAK/NKYUSGS43901.25 FairDebrisModerateNONE
722022-04-14 09:16:08EDTYesTAK/NKYUSGS40401.14 0.24FairDebrisModerateNONE
712022-02-03 12:11:41ESTYesNKY/MECUSGS38101.18 FairDebrisLightNONE
702022-02-03 11:48:10ESTYesNKY/MECUSGS36501.18 FairDebrisLightNONE
692022-02-03 11:23:16ESTYesNKY/MECUSGS38001.20 FairDebrisLightNONE
682021-12-01 13:22:57ESTYesRMC/ZPRUSGS-13300.64 0.20FairDebrisLightNONE
672021-12-01 13:15:31ESTYesRMC/ZPRUSGS-11800.63 0.20FairDebrisLightNONE
662021-12-01 13:08:11ESTYesRMC/ZPRUSGS-11300.61 PoorDebrisLightNONE
652021-12-01 13:01:23ESTYesRMC/ZPRUSGS-10600.61 PoorDebrisLightNONE
642021-12-01 12:54:51ESTYesRMC/ZPRUSGS-9820.59 0.20PoorDebrisLightNONE
632021-12-01 12:47:48ESTYesRMC/ZPRUSGS-8630.56 0.20PoorDebrisLightNONE
622021-12-01 12:22:13ESTYesRMC/ZPRUSGS-2760.52 0.12PoorDebrisLightNONE
612021-11-18 12:10:19ESTYesRMC/ZPRUSGS22500.63 0.20GoodDebrisLightNONE
602021-11-18 11:49:01ESTYesRMC/ZPRUSGS24100.62 0.20GoodDebrisLightNONE
592021-11-18 11:20:08ESTYesRMC/ZPRUSGS24900.60 0.24GoodDebrisLightNONE
582021-11-17 16:42:32ESTYesRMC/ZPRUSGS16501.35 FairDebrisLightNONE
572021-11-17 16:14:41ESTYesRMC/ZPRUSGS15101.26 FairDebrisLightNONE
562021-11-17 15:53:06ESTYesRMC/ZPRUSGS12901.18 0.21PoorDebrisLightNONE
552021-10-18 18:29:45EDTYesRMC/ZPRUSGS28401.33 0.20Poor NONE
542021-10-18 18:23:12EDTYesRMC/ZPRUSGS27901.32 0.20Poor NONE
532021-10-18 18:16:20EDTYesRMC/ZPRUSGS27001.30 0.20Fair NONE
522021-10-18 18:02:52EDTYesRMC/ZPRUSGS25601.28 0.20Fair NONE
512021-10-18 17:55:52EDTYesRMC/ZPRUSGS24801.28 0.20Good NONE
502021-10-18 17:41:47EDTYesRMC/ZPRUSGS22901.26 0.20Poor NONE
492021-10-18 17:33:36EDTYesRMC/ZPRUSGS20701.25 0.14Poor NONE
482021-09-15 18:10:17EDTYesNKY/EHNUSGS27500.99 0.30GoodDebrisHeavyNONE
472021-09-15 17:30:53EDTYesNKY/EHNUSGS25001.07 0.25GoodDebrisHeavyNONE
462021-09-15 16:47:47EDTYesNKY/EHNUSGS24701.26 0.25GoodDebrisHeavyNONE
452021-09-15 16:12:18EDTYesNKY/EHNUSGS26101.39 0.30FairDebrisHeavyNONE
442021-09-15 15:37:07EDTYesNKY/EHNUSGS20001.45 0.40PoorDebrisHeavyNONE
432021-09-15 15:05:12EDTYesNKY/EHNUSGS17301.50 0.32PoorDebrisHeavyNONE
422021-08-26 13:38:08EDTYesNKY/MECUSGS25801.35 0.20Fair NONE
412021-08-26 13:19:56EDTYesNKY/MECUSGS26301.33 0.45Fair NONE
402021-08-26 12:46:08EDTYesNKY/MECUSGS27101.33 0.31Fair NONE
392021-08-05 15:54:32EDTYesNKY/LESUSGS-2291.00 0.20PoorDebrisLightNONE
382021-08-05 15:41EDTYesNKY/LESUSGS-4331.03 0.20PoorDebrisLightNONE
372021-08-05 15:18:01EDTYesNKY/LESUSGS-8841.05 0.20PoorDebrisLightNONE
362021-08-05 14:47:09EDTYesNKY/LESUSGS-11501.15 0.20GoodDebrisLightNONE
352021-08-05 14:11:23EDTYesNKY/LESUSGS-14001.30 0.20FairDebrisLightNONE
342021-08-05 13:44:10EDTYesNKY/LESUSGS-13701.44 0.20PoorDebrisLightNONE
332021-08-05 13:27:37EDTYesNKY/LESUSGS-14601.49 0.20FairDebrisLightNONE
322021-08-05 13:00:33EDTYesNKY/LESUSGS-17301.57 0.26FairDebrisLightNONE
312021-07-01 13:33:19EDTYesNKY/MECUSGS19501.22 0.30FairDebrisModerateNONE
302021-07-01 12:29:38EDTYesNKY/MECUSGS18901.21 0.30FairDebrisModerateNONE
292021-04-30 14:14:09EDTYesNKY/EHNUSGS-23801.58 0.18PoorDebrisLightNONE
282021-04-30 14:04:06EDTYesNKY/EHNUSGS-21701.59 0.15FairDebrisLightNONE
272021-04-30 13:55:50EDTYesNKY/EHNUSGS-20501.61 0.12PoorDebrisLightNONE
262021-04-30 13:30:39EDTYesNKY/EHNUSGS-18301.58 0.11GoodDebrisLightNONE
252021-04-30 13:23:09EDTYesNKY/EHNUSGS-16701.60 0.13PoorDebrisLightNONE
242021-04-30 13:15:26EDTYesNKY/EHNUSGS-13901.63 0.12PoorDebrisLightNONE
232021-04-30 13:06:59EDTYesNKY/EHNUSGS-11001.64 0.15PoorDebrisLightNONE
222021-04-30 12:58:23EDTYesNKY/EHNUSGS-8471.66 0.13PoorDebrisLightNONE
212021-04-30 12:50:09EDTYesNKY/EHNUSGS-5321.69 0.14PoorDebrisLightNONE
202021-04-30 12:36:24EDTYesNKY/EHNUSGS-1471.71 0.06PoorDebrisLightNONE
192021-04-30 12:32:33EDTYesNKY/EHNUSGS-40.51.72 0.05PoorDebrisLightNONE
182021-04-30 12:28:32EDTYesNKY/EHNUSGS9.991.72 0.05PoorDebrisLightNONE
172021-04-30 12:25:08EDTYesNKY/EHNUSGS1641.73 0.05PoorDebrisLightNONE
162021-04-30 12:20:15EDTYesNKY/EHNUSGS3141.73 0.05PoorDebrisLightNONE
152021-04-30 12:15:01EDTYesNKY/EHNUSGS5371.75 0.09PoorDebrisLightNONE
142021-02-05 12:32:12ESTYesNKY/RMCUSGS18201.25 FairDebrisLightNONE
132021-02-05 11:39:48ESTYesNKY/RMCUSGS17501.11 PoorDebrisLightNONE
122021-02-05 11:07:42ESTYesNKY/RMCUSGS14501.07 FairDebrisLightNONE
112021-02-05 10:40:01ESTYesNKY/RMCUSGS15301.08 FairDebrisLightNONE
102021-02-05 10:25:57ESTYesNKY/RMCUSGS16601.06 FairDebrisLightNONE
92021-02-05 09:55:06ESTYesNKY/RMCUSGS21200.99 FairDebrisLightNONE
82020-12-16 17:03:53ESTYesNKY/CRCUSGS19700.92 PoorDebrisModerateNONE
72020-12-16 16:56:08ESTYesNKY/CRCUSGS21800.91 PoorDebrisModerateNONE
62020-12-16 16:49:15ESTYesNKY/CRCUSGS22700.90 PoorDebrisModerateNONE
52020-12-16 16:42:06ESTYesNKY/CRCUSGS23500.88 PoorDebrisModerateNONE
42020-12-16 16:33:59ESTYesNKY/CRCUSGS26500.87 PoorDebrisModerateNONE
32020-12-16 16:14:26ESTYesNKY/CRCUSGS29900.81 GoodDebrisModerateNONE
22020-10-21 17:59:06EDTYesNKY/RMCUSGS39501.30 FairDebrisLightNONE
12020-04-22 17:36:16EDTYesRGK/TJNUSGS782 Poor NONE